TimeCST,TemperatureF,Dew PointF,Humidity,Sea Level PressureIn,VisibilityMPH,Wind Direction,Wind SpeedMPH,Gust SpeedMPH,PrecipitationIn,Events,Conditions,WindDirDegrees,DateUTC
12:15 AM,29.3,18.7,65,30.02,10.0,West,13.8,21.9,N/A,,Clear,270,2013-02-19 06:15:00
12:35 AM,28.9,18.3,65,30.02,10.0,WNW,12.7,25.3,N/A,,Clear,290,2013-02-19 06:35:00
12:55 AM,28.6,17.4,63,30.03,10.0,WNW,16.1,25.3,N/A,,Clear,290,2013-02-19 06:55:00
1:15 AM,28.2,16.2,61,30.04,10.0,West,12.7,-,N/A,,Clear,280,2013-02-19 07:15:00
1:35 AM,28.0,16.9,63,30.04,10.0,WNW,11.5,24.2,N/A,,Clear,290,2013-02-19 07:35:00
1:55 AM,28.0,16.2,61,30.05,10.0,West,10.4,21.9,N/A,,Clear,270,2013-02-19 07:55:00
2:15 AM,27.9,14.5,57,30.05,10.0,WNW,11.5,24.2,N/A,,Clear,290,2013-02-19 08:15:00
2:35 AM,27.3,14.0,57,30.05,10.0,WNW,11.5,20.7,N/A,,Clear,290,2013-02-19 08:35:00
2:55 AM,26.8,14.5,60,30.05,10.0,West,15.0,23.0,N/A,,Clear,280,2013-02-19 08:55:00
3:15 AM,26.6,14.4,60,30.06,10.0,WNW,12.7,20.7,N/A,,Clear,290,2013-02-19 09:15:00
3:35 AM,26.4,14.7,61,30.05,10.0,WNW,17.3,25.3,N/A,,Clear,290,2013-02-19 09:35:00
3:55 AM,26.2,14.7,62,30.06,10.0,WNW,13.8,26.5,N/A,,Clear,300,2013-02-19 09:55:00
4:15 AM,25.9,14.9,63,30.07,10.0,WNW,13.8,27.6,N/A,,Clear,290,2013-02-19 10:15:00
4:35 AM,25.7,15.1,64,30.08,10.0,WNW,13.8,23.0,N/A,,Clear,290,2013-02-19 10:35:00
4:55 AM,25.3,15.6,67,30.08,10.0,WNW,15.0,21.9,N/A,,Clear,290,2013-02-19 10:55:00
5:15 AM,25.3,15.6,67,30.08,10.0,WNW,11.5,23.0,N/A,,Clear,290,2013-02-19 11:15:00
5:35 AM,25.2,15.1,66,30.09,10.0,WNW,13.8,23.0,N/A,,Clear,290,2013-02-19 11:35:00
5:55 AM,25.0,14.9,66,30.09,10.0,WNW,16.1,23.0,N/A,,Clear,290,2013-02-19 11:55:00
6:15 AM,24.8,14.9,66,30.11,10.0,WNW,11.5,18.4,N/A,,Clear,290,2013-02-19 12:15:00
6:35 AM,24.4,14.5,66,30.11,10.0,WNW,15.0,23.0,N/A,,Clear,290,2013-02-19 12:35:00
6:55 AM,24.1,14.5,67,30.13,10.0,WNW,13.8,23.0,N/A,,Clear,290,2013-02-19 12:55:00
7:15 AM,23.9,14.7,68,30.13,10.0,WNW,12.7,21.9,N/A,,Clear,300,2013-02-19 13:15:00
7:35 AM,24.3,14.5,67,30.15,10.0,WNW,13.8,23.0,N/A,,Scattered Clouds,290,2013-02-19 13:35:00
7:55 AM,24.3,14.0,65,30.16,10.0,WNW,15.0,21.9,N/A,,Scattered Clouds,290,2013-02-19 13:55:00
8:15 AM,24.6,13.3,62,30.16,10.0,NW,16.1,25.3,N/A,,Clear,310,2013-02-19 14:15:00
8:35 AM,24.8,12.7,60,30.17,10.0,WNW,13.8,23.0,N/A,,Scattered Clouds,290,2013-02-19 14:35:00
8:55 AM,24.6,10.4,55,30.18,10.0,WNW,20.7,29.9,N/A,,Clear,300,2013-02-19 14:55:00
9:15 AM,24.3,9.5,53,30.19,10.0,WNW,18.4,29.9,N/A,,Clear,300,2013-02-19 15:15:00
9:35 AM,24.4,10.2,55,30.20,10.0,NW,21.9,28.8,N/A,,Clear,310,2013-02-19 15:35:00
9:55 AM,24.3,10.0,55,30.21,10.0,NW,17.3,23.0,N/A,,Clear,310,2013-02-19 15:55:00
10:15 AM,24.8,11.3,57,30.22,10.0,NW,16.1,25.3,N/A,,Clear,310,2013-02-19 16:15:00
10:35 AM,25.0,11.5,57,30.23,10.0,NW,15.0,20.7,N/A,,Clear,310,2013-02-19 16:35:00
10:55 AM,25.2,11.7,57,30.24,10.0,WNW,15.0,23.0,N/A,,Clear,290,2013-02-19 16:55:00
11:15 AM,25.3,10.9,54,30.24,10.0,WNW,13.8,20.7,N/A,,Clear,300,2013-02-19 17:15:00
11:35 AM,26.2,11.8,55,30.25,10.0,West,13.8,23.0,N/A,,Scattered Clouds,280,2013-02-19 17:35:00
11:55 AM,26.4,11.3,53,30.25,10.0,West,18.4,24.2,N/A,,Scattered Clouds,280,2013-02-19 17:55:00
12:15 PM,27.1,11.7,52,30.25,10.0,WNW,16.1,21.9,N/A,,Clear,300,2013-02-19 18:15:00
12:35 PM,27.3,11.5,51,30.25,10.0,WNW,16.1,24.2,N/A,,Clear,300,2013-02-19 18:35:00
12:55 PM,28.2,11.1,49,30.25,10.0,NW,18.4,23.0,N/A,,Clear,310,2013-02-19 18:55:00
1:15 PM,28.0,10.9,49,30.25,10.0,WNW,13.8,23.0,N/A,,Clear,290,2013-02-19 19:15:00
1:35 PM,28.6,10.6,47,30.25,10.0,WNW,13.8,26.5,N/A,,Clear,290,2013-02-19 19:35:00
1:55 PM,29.3,10.4,45,30.25,10.0,West,15.0,23.0,N/A,,Clear,280,2013-02-19 19:55:00
2:15 PM,30.4,10.8,44,30.25,10.0,WNW,11.5,25.3,N/A,,Clear,290,2013-02-19 20:15:00
2:35 PM,30.7,10.8,43,30.25,10.0,WNW,13.8,21.9,N/A,,Clear,290,2013-02-19 20:35:00
2:55 PM,31.3,9.5,40,30.25,10.0,WNW,15.0,23.0,N/A,,Clear,290,2013-02-19 20:55:00
3:15 PM,31.8,10.0,40,30.25,10.0,WNW,16.1,23.0,N/A,,Clear,290,2013-02-19 21:15:00
3:35 PM,31.8,8.6,38,30.26,10.0,WNW,13.8,21.9,N/A,,Clear,300,2013-02-19 21:35:00
3:55 PM,32.0,9.3,39,30.26,10.0,West,11.5,20.7,N/A,,Clear,280,2013-02-19 21:55:00
4:15 PM,32.0,8.6,38,30.26,10.0,West,13.8,19.6,N/A,,Clear,280,2013-02-19 22:15:00
4:35 PM,32.0,7.9,36,30.26,10.0,West,13.8,20.7,N/A,,Clear,270,2013-02-19 22:35:00
4:55 PM,31.8,6.6,35,30.26,10.0,WNW,12.7,18.4,N/A,,Clear,300,2013-02-19 22:55:00
5:15 PM,31.1,6.4,35,30.26,10.0,NW,10.4,18.4,N/A,,Clear,310,2013-02-19 23:15:00
6:35 PM,28.6,7.0,40,30.26,10.0,WNW,9.2,-,N/A,,Clear,290,2013-02-20 00:35:00
6:55 PM,28.2,5.5,38,30.27,10.0,WNW,5.8,-,N/A,,Clear,300,2013-02-20 00:55:00
7:15 PM,27.7,5.0,38,30.27,10.0,WNW,8.1,-,N/A,,Clear,300,2013-02-20 01:15:00
7:35 PM,27.0,6.1,41,30.27,10.0,NW,4.6,-,N/A,,Clear,310,2013-02-20 01:35:00
7:55 PM,26.4,6.8,43,30.28,10.0,NW,5.8,-,N/A,,Clear,310,2013-02-20 01:55:00
8:15 PM,25.9,7.5,46,30.28,10.0,NW,4.6,-,N/A,,Clear,310,2013-02-20 02:15:00
8:35 PM,25.3,7.7,47,30.29,10.0,West,3.5,-,N/A,,Clear,280,2013-02-20 02:35:00
8:55 PM,25.5,7.5,47,30.30,10.0,WNW,3.5,-,N/A,,Clear,300,2013-02-20 02:55:00
9:15 PM,24.8,7.9,49,30.31,10.0,West,3.5,-,N/A,,Clear,280,2013-02-20 03:15:00
9:35 PM,24.8,7.7,48,30.32,10.0,WNW,3.5,-,N/A,,Clear,300,2013-02-20 03:35:00
9:55 PM,24.3,8.4,51,30.33,10.0,WNW,5.8,-,N/A,,Clear,300,2013-02-20 03:55:00
10:15 PM,24.1,8.6,52,30.33,10.0,NW,6.9,-,N/A,,Clear,310,2013-02-20 04:15:00
10:35 PM,23.9,8.4,52,30.30,10.0,NW,6.9,-,N/A,,Clear,320,2013-02-20 04:35:00
10:55 PM,23.7,7.9,51,30.32,10.0,WNW,5.8,-,N/A,,Clear,290,2013-02-20 04:55:00
11:15 PM,23.4,7.7,51,30.32,10.0,NW,8.1,-,N/A,,Clear,320,2013-02-20 05:15:00
11:35 PM,23.4,7.2,50,30.33,10.0,NW,5.8,-,N/A,,Clear,310,2013-02-20 05:35:00
11:55 PM,22.8,7.2,51,30.33,10.0,NW,4.6,-,N/A,,Clear,310,2013-02-20 05:55:00